METLOCID,DATE_TIME,AVG_PAR,STDDEV_PAR,MIN_PAR,MAX_PAR,N_PAR,AVG_SWRADIN,STDDEV_SWRADIN,MIN_SWRADIN,MAX_SWRADIN,N_SWRADIN,AVG_SWRADOUT,STDDEV_SWRADOUT,MIN_SWRADOUT,MAX_SWRADOUT,N_SWRADOUT,AVG_UVA,STDDEV_UVA,MIN_UVA,MAX_UVA,N_UVA,AVG_UVB,STDDEV_UVB,MIN_UVB,MAX_UVB,N_UVB,AVG_NETRAD,STDDEV_NETRAD,MIN_NETRAD,MAX_NETRAD,N_NETRAD
BRHM,12/1/94,,,,,0,220.2115385,118.085482,49.8,406,26,,,,,0,19.02115385,9.605704275,5.15,37.88,26,0.951961538,1.009000792,0,3.17,26,99.81115385,67.47585579,12.27,220.8,26
BRHM,1/1/95,,,,,0,287.0223118,191.1137295,14.3,739.3,744,,,,,0,22.68872312,14.02790409,2.18,56.32,744,1.370810484,1.428490281,0,4.83,744,115.4917876,105.5952744,-59.77,393.9,744
BRHM,2/1/95,,,,,0,171.0574405,168.7449374,0,553.8,672,,,,,0,12.97571429,12.25562723,0,42.09,672,0.578409226,0.876340784,0,3.3,672,46.16017857,86.22765847,-76,274.3,672
BRHM,3/1/95,,,,,0,61.87620968,90.78118449,0,416.2,744,,,,,0,4.915456989,6.872946931,0,30.68,744,0.071049731,0.236762669,0,1.63,744,-13.51622312,30.11425779,-158.2,102,744
BRHM,4/1/95,,,,,0,2.645138889,7.81663493,0,72.6,720,,,,,0,0.299861111,1.004256993,0,6.51,720,0,0,0,0,720,-21.02133333,20.08547484,-79.9,10.63,720
BRHM,5/1/95,,,,,0,0,0,0,0,744,,,,,0,0,0,0,0,744,0,0,0,0,744,-23.69775538,20.93798868,-79.2,10.45,744
BRHM,6/1/95,,,,,0,0,0,0,0,720,,,,,0,0,0,0,0,720,0,0,0,0,720,-30.95704167,23.00433339,-77.1,6.33,720
BRHM,7/1/95,,,,,0,0,0,0,0,744,,,,,0,0,0,0,0,744,0,0,0,0,744,-29.88194892,20.11186521,-79.8,14.87,744
BRHM,8/1/95,,,,,0,0.767117117,3.863994343,0,38.8,222,,,,,0,0.208648649,1.128983435,0,12.01,222,0.090225225,0.555740461,0,5.87,222,-62.87621622,39.45853058,-205,71.4,222
BRHM,11/1/95,,,,,0,342.0739628,215.0703573,17.4,839.2,699,,,,,0,22.73969957,13.37920194,2.26,52.99,699,1.310932761,1.325070051,0,4.14,699,115.8402146,108.2671422,-65.17,403.6,699
BRHM,12/1/95,,,,,0,352.1835349,230.1965912,21.2,1038.7,2976,,,,,0,24.3088172,14.33002882,2.4,58.76,2976,1.630996304,1.604118721,0,5.22,2976,130.3175168,114.4041215,-131.7,509.9,2976
BRHM,1/1/96,,,,,0,303.5072245,216.6985397,5.8,931.1,2976,,,,,0,21.32000672,13.68185136,0.57,57.87,2976,1.342793683,1.415844072,0,4.99,2976,111.9621707,108.7459295,-64.96,459,2976
BRHM,2/1/96,,,,,0,200.6907687,187.2276595,0,699.5,2784,,,,,0,12.9021408,11.55635594,0,41.37,2784,0.617571839,0.882003808,0,3.17,2784,43.88425647,88.2372077,-188.4,326.2,2784
BRHM,3/1/96,,,,,0,61.22093414,95.97067414,0,453.3,2976,,,,,0,3.859354839,5.772292799,0,25.38,2976,0.047069892,0.18329097,0,1.27,2976,-12.33437836,38.69572127,-185.4,153.3,2976
BRHM,4/1/96,,,,,0,5.367306637,11.84445966,0,99.7,1823,,,,,0,0.482742732,1.113967624,0,6.3,1823,0.006039495,0.03663842,0,0.52,1823,-31.15076248,26.40151531,-137.2,31.12,1823
BRHM,11/1/96,622.5436353,383.7265377,58.61,1511.94,1667,305.8227954,193.9424381,15.4,755,1667,65.09528494,40.81218647,3.06,167.2,1667,,,,,0,,,,,0,,,,,0
BRHM,12/1/96,673.1717641,400.0887356,98.51,1790.73,2976,327.3727731,201.7065345,25.1,871,2975,66.62905242,41.58451409,4.78,268.8,2976,,,,,0,,,,,0,,,,,0
BRHM,1/1/97,588.9707361,398.1730705,53.65,1778.76,2948,286.6437055,200.5352077,16.6,858,2947,63.03868725,44.73343895,3,272.8,2948,,,,,0,,,,,0,,,,,0
BRHM,2/1/97,362.3121652,322.641677,0,1128.3,2688,184.6352307,167.4274738,0.2,567.6,2688,39.8,35.14723193,0,125.6,2688,,,,,0,,,,,0,,,,,0
BRHM,3/1/97,124.5345097,172.4805019,0,733.9,2947,64.56026468,96.07883,0,386.6,2947,26.17054632,39.5191064,0,192.5,2947,,,,,0,,,,,0,,,,,0
BRHM,4/1/97,9.675034722,21.73879461,0,146.4,2880,3.915833333,9.268686953,0,84,2880,1.837256944,4.324934866,0,39.9,2880,,,,,0,,,,,0,,,,,0
BRHM,5/1/97,0.023622312,0.148978992,0,1.1,2976,0.014348118,0.075631427,0,0.9,2976,0.006182796,0.035200442,0,0.4,2976,,,,,0,,,,,0,,,,,0
BRHM,6/1/97,0.000104167,0.00559017,0,0.3,2880,0.001770833,0.015151988,0,0.3,2880,0.000590278,0.007661575,0,0.1,2880,,,,,0,,,,,0,,,,,0
BRHM,7/1/97,0.000840054,0.018037308,0,0.5,2976,0.001747312,0.015239422,0,0.2,2976,0.000336022,0.006342175,0,0.2,2976,,,,,0,,,,,0,,,,,0
BRHM,8/1/97,3.746572581,11.82545019,0,83.1,2976,1.69858871,5.284729041,0,35.5,2976,0.955107527,2.934473303,0,19.5,2976,,,,,0,,,,,0,,,,,0
BRHM,9/1/97,66.70850682,111.5359019,0,649.6,2786,32.11748026,58.77899764,0,343.4,2786,17.38144293,30.8636063,0,199.2,2786,,,,,0,,,,,0,,,,,0
BRHM,10/1/97,256.5794019,267.2268381,0,1052,2976,131.1571573,140.7847936,0,588.4,2976,37.36848118,40.8944482,0,209.7,2976,,,,,0,,,,,0,,,,,0
BRHM,11/1/97,480.9560653,353.1810888,13.8,1493.1,2877,238.414251,180.791437,5.2,772,2877,49.16294751,37.36203332,1.2,154.9,2877,,,,,0,,,,,0,,,,,0
BRHM,12/1/97,624.1822245,404.9413622,43.1,1960.1,2976,308.8419778,207.1961728,17.3,895,2973,66.11444892,45.08810586,3.5,233.7,2976,,,,,0,,,,,0,,,,,0
BRHM,1/1/98,586.3481008,393.9143559,46.6,1636.8,2975,291.2647395,201.8911431,19.5,845,2975,62.38403361,44.35339592,3.7,365.8,2975,,,,,0,,,,,0,,,,,0
BRHM,2/1/98,310.4789807,291.5619076,0.2,1286.2,2688,153.6284226,148.9166046,0.2,653.1,2688,63.38370536,74.26400042,0,385.9,2688,,,,,0,,,,,0,,,,,0
BRHM,3/1/98,125.5893481,175.5140979,0,876.6,2976,65.15332661,95.69374316,0,493.7,2976,25.87170699,34.96362959,0,159.5,2976,,,,,0,,,,,0,,,,,0
BRHM,4/1/98,8.217395833,16.52553718,0,139.4,2880,3.039895833,6.596245155,0,80.3,2880,3.030104167,8.262837538,0,115.9,2880,,,,,0,,,,,0,,,,,0
BRHM,5/1/98,0.022883065,0.167805072,0,2.2,2976,0.015759409,0.088176454,0,1,2976,0.007022849,0.043937398,0,0.6,2976,,,,,0,,,,,0,,,,,0
BRHM,6/1/98,3.47E-05,0.00186339,0,0.1,2880,0.000972222,0.010497817,0,0.2,2880,0.0003125,0.005582398,0,0.1,2880,,,,,0,,,,,0,,,,,0
BRHM,7/1/98,0.001478495,0.035043764,0,1.1,2976,0.00218414,0.01735253,0,0.2,2976,0.000672043,0.008956588,0,0.2,2976,,,,,0,,,,,0,,,,,0
BRHM,8/1/98,2.4375,8.417958694,0,65,2976,1.136122312,3.821566701,0,33,2976,0.664650538,1.940548414,0,13.8,2976,,,,,0,,,,,0,,,,,0
BRHM,9/1/98,52.72708333,91.91509294,0,668.7,2880,24.37625,45.04199305,0,334.8,2880,20.54347222,36.37727018,0,217.6,2880,,,,,0,,,,,0,,,,,0
BRHM,10/1/98,275.5269825,279.2818394,0,1029.1,2976,141.0566196,145.6371557,0,532.1,2976,51.48172043,54.32367169,0,351.9,2976,,,,,0,,,,,0,,,,,0
BRHM,11/1/98,578.5252778,384.2845122,36.3,1380.3,2880,294.3076042,199.0761737,11,710,2880,65.36881944,44.3350406,2.6,182,2880,,,,,0,,,,,0,,,,,0
BRHM,12/1/98,723.3416667,415.4544076,82.7,1741.1,2976,367.913916,215.0820969,23.6,896,2975,76.78040995,44.14736547,4.5,184.2,2976,,,,,0,,,,,0,,,,,0
BRHM,1/1/99,561.8417619,378.8766831,26,1801,2974,279.7107972,195.7499573,11.2,871,2973,59.88870208,41.15769653,2.3,198.6,2974,,,,,0,,,,,0,,,,,0
BRHM,2/1/99,377.8917411,337.7169873,0,1468.4,2688,197.3375744,180.9164559,0.2,790,2688,57.23348214,57.36300288,0.2,394.9,2688,,,,,0,,,,,0,,,,,0
BRHM,3/1/99,131.2415995,182.247078,0,947.1,2976,71.1375672,105.8453038,0,591.4,2976,46.72436156,71.19626797,0,407.4,2976,,,,,0,,,,,0,,,,,0
BRHM,4/1/99,12.22135417,28.21114514,0,183.8,2880,5.516458333,13.65853614,0,91.4,2880,4.425902778,10.33463487,0,65.3,2880,,,,,0,,,,,0,,,,,0
BRHM,5/1/99,0.053629032,0.308022048,0,3.3,2976,0.02328629,0.128907836,0,1.4,2976,0.026780914,0.109261172,0,1.2,2976,,,,,0,,,,,0,,,,,0
BRHM,6/1/99,0.000347222,0.012635549,0,0.6,2880,0.000868056,0.009998782,0,0.2,2880,0.006388889,0.024459737,0,0.1,2880,,,,,0,,,,,0,,,,,0
BRHM,7/1/99,0.000604839,0.019737021,0,0.8,2976,0.000772849,0.010178614,0,0.2,2976,0.00483871,0.021926712,0,0.2,2976,,,,,0,,,,,0,,,,,0
BRHM,8/1/99,2.645698925,9.551267855,0,66.2,2976,1.177116935,3.945168374,0,30.4,2976,0.818850806,2.292002352,0,15.4,2976,,,,,0,,,,,0,,,,,0
BRHM,9/1/99,57.78864583,96.72491088,0,538.2,2880,26.9496875,48.55396234,0,299.4,2880,19.08336806,35.46754982,0,197.5,2880,,,,,0,,,,,0,,,,,0
BRHM,10/1/99,293.7615255,291.2743346,0,1090,2976,155.2492944,157.131447,0,570.6,2976,55.16350806,58.18678101,0,343.4,2976,,,,,0,,,,,0,,,,,0
BRHM,11/1/99,537.7180208,384.3529987,14.2,1585,2880,271.4906944,200.4678298,3.9,826,2880,60.51934028,43.3506691,1,172.3,2880,,,,,0,,,,,0,,,,,0
BRHM,12/1/99,698.846371,413.4526994,36.8,1859.3,2976,353.2551666,215.7837654,13.6,881,2971,76.82718414,46.11558642,3,202.8,2976,,,,,0,,,,,0,,,,,0
BRHM,1/1/00,637.6585349,406.494156,56,1634.3,2976,324.9839718,214.3064771,16.8,858,2976,71.08854167,45.41229005,3.6,204.9,2976,,,,,0,,,,,0,,,,,0
BRHM,2/1/00,376.6275503,332.0106935,0,1172.7,2784,197.2219109,177.8643778,0.2,648.5,2784,49.9264727,48.72639496,0,381.2,2784,,,,,0,,,,,0,,,,,0
BRHM,3/1/00,115.0780578,165.1802756,0,935.9,2976,60.62617608,93.98827842,0,527.8,2976,22.26683468,31.70534614,0,160.9,2976,,,,,0,,,,,0,,,,,0
BRHM,4/1/00,11.01822917,25.42537189,0,180.5,2880,4.932395833,12.06318014,0,93.9,2880,3.578090278,9.175117133,0,74,2880,,,,,0,,,,,0,,,,,0
BRHM,5/1/00,0.027721774,0.222002312,0,2.4,2976,0.017540323,0.102283828,0,1.2,2976,0.020262097,0.056948143,0,0.5,2976,,,,,0,,,,,0,,,,,0
BRHM,6/1/00,3.47E-05,0.00186339,0,0.1,2880,0.001006944,0.011595232,0,0.2,2880,0.020694444,0.042198242,0,0.2,2880,,,,,0,,,,,0,,,,,0
BRHM,7/1/00,0.001915323,0.035070554,0,1.1,2976,0.00171371,0.01513258,0,0.2,2976,0.016465054,0.04072128,0,0.2,2976,,,,,0,,,,,0,,,,,0
BRHM,8/1/00,3.288978495,10.14527184,0,72.3,2976,1.467708333,4.214285699,0,39.9,2976,0.505981183,1.218313138,0,9.4,2976,,,,,0,,,,,0,,,,,0
BRHM,9/1/00,60.35725694,106.3532457,0,561.9,2880,29.9646875,59.71957648,0,311.7,2880,10.36784722,18.24283158,0,103.9,2880,,,,,0,,,,,0,,,,,0
BRHM,10/1/00,293.0549395,287.9927847,0,1109.3,2976,159.809207,158.9227739,0,598.7,2976,39.93508065,39.20521882,0,155.4,2976,,,,,0,,,,,0,,,,,0
BRHM,11/1/00,509.898089,362.2097987,27.3,1339.3,2878,251.7180618,186.2312555,10.7,666.5,2879,58.33934028,44.23751201,2.3,214.6,2880,,,,,0,,,,,0,,,,,0
BRHM,12/1/00,697.1087366,414.8893524,81,1634.5,2976,339.0632392,212.6573629,23.2,838,2976,73.0546371,43.93087051,4.6,230.5,2976,,,,,0,,,,,0,,,,,0
BRHM,1/1/01,607.171745,394.7322985,56.7,1661.5,1490,298.446707,201.9030121,15.2,848,2976,61.88413978,40.94449751,3,169.5,2976,,,,,0,,,,,0,,,,,0
BRHM,2/1/01,,,,,0,186.7737351,166.471424,0.2,630.1,2688,39.8610119,35.06725175,0,129.6,2688,,,,,0,,,,,0,,,,,0
BRHM,3/1/01,,,,,0,63.81502016,93.89867512,0,361.1,2976,15.5749664,22.07923916,0,115.9,2976,,,,,0,,,,,0,,,,,0
BRHM,4/1/01,,,,,0,3.3709375,7.918560762,0,73.7,2880,2.654513889,6.371633616,0,53,2880,,,,,0,,,,,0,,,,,0
BRHM,5/1/01,,,,,0,0.017170699,0.096654243,0,1.5,2976,0.006854839,0.046018488,0,0.6,2976,,,,,0,,,,,0,,,,,0
BRHM,6/1/01,,,,,0,0.002743056,0.020486696,0,0.3,2880,0.0003125,0.006173331,0,0.2,2880,,,,,0,,,,,0,,,,,0
BRHM,7/1/01,,,,,0,0.002755376,0.019893886,0,0.2,2976,0.000100806,0.003173936,0,0.1,2976,,,,,0,,,,,0,,,,,0
BRHM,8/1/01,,,,,0,1.062802419,3.694875499,0,41,2976,1.007795699,3.189928433,0,26.1,2976,,,,,0,,,,,0,,,,,0
BRHM,9/1/01,,,,,0,28.30899306,53.88228147,0,321.3,2880,13.09993056,23.70108971,0,132.5,2880,,,,,0,,,,,0,,,,,0
BRHM,10/1/01,,,,,0,154.8299059,152.5821079,0,622.7,2976,43.37043011,41.68540199,0,165.6,2976,,,,,0,,,,,0,,,,,0
BRHM,11/1/01,,,,,0,288.5302778,199.8690548,11.2,831,2880,64.00826389,44.32213547,2.6,264,2880,,,,,0,,,,,0,,,,,0
BRHM,12/1/01,,,,,0,347.7306424,216.924239,22.2,870,2973,72.87204844,44.64376699,4.5,176.5,2973,,,,,0,,,,,0,,,,,0
BRHM,1/1/02,487.3794733,356.204222,41.2,1602.7,1291,290.1970094,204.5809379,15.3,827,2976,62.88010753,46.22809769,3.2,336.4,2976,,,,,0,,,,,0,,,,,0
BRHM,2/1/02,348.1610491,310.0517514,0,1267.6,2688,171.7978423,158.4509676,0.2,676.2,2688,37.32172619,34.14163297,0,134.8,2688,,,,,0,,,,,0,,,,,0
BRHM,3/1/02,117.9437836,161.3743866,0,706.3,2976,58.65739247,86.50756496,0,370.4,2976,20.1328293,32.44827953,0,215.6,2976,,,,,0,,,,,0,,,,,0
BRHM,4/1/02,10.54527778,22.99195682,0,174.3,2880,3.777881944,9.139820107,0,99.1,2880,2.065486111,5.085982115,0,59.1,2880,,,,,0,,,,,0,,,,,0
BRHM,5/1/02,0.018716398,0.151615942,0,2,2976,0.011357527,0.071985329,0,1,2976,0.00500672,0.032875624,0,0.4,2976,,,,,0,,,,,0,,,,,0
BRHM,6/1/02,0.000520833,0.010693539,0,0.3,2880,0.0009375,0.012742524,0,0.3,2880,3.47E-05,0.00186339,0,0.1,2880,,,,,0,,,,,0,,,,,0
BRHM,7/1/02,0.000302419,0.011735571,0,0.6,2976,0.00141129,0.014599097,0,0.2,2976,0,0,0,0,2976,,,,,0,,,,,0,,,,,0
BRHM,8/1/02,2.544489247,8.314782819,0,69.4,2976,1.09469086,3.815539043,0,42.6,2976,0.46703629,1.587456743,0,16.6,2976,,,,,0,,,,,0,,,,,0
BRHM,9/1/02,47.12326389,82.65919116,0,484.1,2880,21.0984375,38.89773592,0,212.9,2880,18.03621528,34.5509111,0,167.7,2880,,,,,0,,,,,0,,,,,0
BRHM,10/1/02,261.5562836,267.5124975,0,991.3,2976,130.9643145,136.5681389,0,505,2976,83.60826613,84.55517905,0,364.4,2976,,,,,0,,,,,0,,,,,0
BRHM,11/1/02,538.3296528,374.6362383,19.9,1475.8,2880,271.1631469,197.049474,7.1,783,2879,100.170198,80.39330613,3.2,465.3,2879,,,,,0,,,,,0,,,,,0
BRHM,12/1/02,663.9971438,405.0376149,45.6,1784.6,2976,334.508703,213.5190588,18.6,933,2976,68.59267473,42.99303332,3.5,249.8,2976,,,,,0,,,,,0,,,,,0
BRHM,1/1/03,544.574328,377.2800765,47,1820.7,2976,262.7264785,195.6357597,17.9,961,2976,100.5636761,103.4781011,3,549,2976,,,,,0,,,,,0,,,,,0
BRHM,2/1/03,391.6621652,343.8381416,0,1290.4,2688,195.7492188,177.4845532,0.2,665.2,2688,119.1170759,112.8026127,0,446.1,2688,,,,,0,,,,,0,,,,,0
BRHM,3/1/03,115.8598454,155.4011374,0,752.9,2976,59.66592742,84.79673437,0,402.5,2976,44.6937164,64.64702348,0,301.3,2976,,,,,0,,,,,0,,,,,0
BRHM,4/1/03,9.359652778,20.55550515,0,133.2,2880,4.102395833,9.833071373,0,78.4,2880,3.529166667,8.473366934,0,76.7,2880,,,,,0,,,,,0,,,,,0
BRHM,5/1/03,0.014180108,0.108962409,0,2.1,2976,0.008837366,0.059571516,0,0.9,2976,0.013608871,0.091704386,0,1.4,2976,,,,,0,,,,,0,,,,,0
BRHM,6/1/03,6.94E-05,0.00372678,0,0.2,2880,0.001076389,0.013525261,0,0.3,2880,0.000104167,0.004166088,0,0.2,2880,,,,,0,,,,,0,,,,,0
BRHM,7/1/03,0,0,0,0,2976,0.000974462,0.011982818,0,0.2,2976,0.000201613,0.004486358,0,0.1,2976,,,,,0,,,,,0,,,,,0
BRHM,8/1/03,2.543581989,8.273380974,0,57.7,2976,1.021975806,3.218366556,0,28.3,2976,0.432258065,1.230189331,0,8.2,2976,,,,,0,,,,,0,,,,,0
BRHM,9/1/03,55.18072917,92.4706544,0,553,2880,25.15927083,46.44974282,0,308.1,2880,13.88923611,27.47405563,0,181.6,2880,,,,,0,,,,,0,,,,,0
BRHM,10/1/03,278.1058468,283.9662292,0,1107.1,2976,146.2380376,152.9625286,0,581.7,2976,41.2124328,43.59703035,0,213.2,2976,,,,,0,,,,,0,,,,,0
BRHM,11/1/03,525.9189931,363.2726875,25.9,1491.6,2880,264.8426389,189.4266765,9.4,777,2880,55.79909722,39.70358818,1.6,192,2880,,,,,0,,,,,0,,,,,0
BRHM,12/1/03,668.9267809,399.5980849,61.1,1594.6,2976,331.675,207.4793361,24.5,835,2976,79.59156586,54.39713919,4.1,479.1,2976,,,,,0,,,,,0,,,,,0
BRHM,1/1/04,628.6244624,403.8787187,54.1,1591.2,2976,316.4749664,211.1946484,15.5,839,2976,62.86310484,41.95322649,2.5,164.1,2976,,,,,0,,,,,0,,,,,0
BRHM,2/1/04,373.8975216,327.7143946,0,1249.6,2784,191.4827227,172.2093526,0.2,688.6,2784,47.8253592,47.14610493,0,279.8,2784,,,,,0,,,,,0,,,,,0
BRHM,3/1/04,129.4052755,180.3273226,0,997.4,2976,67.82557124,100.519452,0,580,2976,31.02936828,43.98113459,0,247.5,2976,,,,,0,,,,,0,,,,,0
BRHM,4/1/04,10.06690972,23.8102368,0,163.1,2880,4.209236111,10.86428314,0,85.8,2880,2.586493056,6.668453741,0,70.5,2880,,,,,0,,,,,0,,,,,0
BRHM,5/1/04,0.031384409,0.212538634,0,2.4,2976,0.020598118,0.120541266,0,1.3,2976,0.010719086,0.06540902,0,0.7,2976,,,,,0,,,,,0,,,,,0
BRHM,6/1/04,0,0,0,0,2880,0.001076389,0.011285293,0,0.2,2880,0.000104167,0.003226365,0,0.1,2880,,,,,0,,,,,0,,,,,0
BRHM,7/1/04,0.001444892,0.027827723,0,0.7,2976,0.001444892,0.014480203,0,0.3,2976,6.72E-05,0.002591944,0,0.1,2976,,,,,0,,,,,0,,,,,0
BRHM,8/1/04,2.487701613,7.522183884,0,59.5,2976,1.128763441,3.246361524,0,29.7,2976,0.460517473,2.119431571,0,31.2,2976,,,,,0,,,,,0,,,,,0
BRHM,9/1/04,64.65461806,109.2223907,0,580.9,2880,32.81548611,59.31739885,0,338.3,2880,15.57975694,26.30302224,0,125.9,2880,,,,,0,,,,,0,,,,,0
BRHM,10/1/04,286.1809476,284.3124946,0,1018.9,2976,153.9944892,154.9404308,0,534.4,2976,42.14008737,43.64929627,0,215.5,2976,,,,,0,,,,,0,,,,,0
BRHM,11/1/04,557.4933681,371.2119475,35,1372.9,2880,287.469375,195.8781664,11,718,2880,60.5859375,40.81203195,2.1,147.8,2880,,,,,0,,,,,0,,,,,0
BRHM,12/1/04,640.8317754,418.8021434,87.3,1986.8,2974,300.4712366,203.1395695,21.6,976,2976,77.47288306,64.7807632,4.2,531.3,2976,,,,,0,,,,,0,,,,,0
BRHM,1/1/05,580.5222185,384.6329633,27.4,1571.4,2975,267.6984538,183.9453528,10.4,745,2975,74.45690756,62.00441031,1.4,418.6,2975,,,,,0,,,,,0,,,,,0
BRHM,2/1/05,368.8794271,325.8469918,0,1272.8,2688,175.4620908,157.3617577,0.2,621.6,2688,64.64363839,73.03754822,0.2,496.3,2688,,,,,0,,,,,0,,,,,0
BRHM,3/1/05,131.3153562,179.8211311,0,1037.7,2976,60.13289651,87.60702291,0,529.2,2976,32.57251344,48.29196844,0,294.6,2976,,,,,0,,,,,0,,,,,0
BRHM,4/1/05,11.64298611,26.41291127,0,169.8,2880,4.818125,11.54421998,0,81.1,2880,2.391944444,5.419881361,0,35.3,2880,,,,,0,,,,,0,,,,,0
BRHM,5/1/05,0.026075269,0.231630363,0,3.9,2976,0.020262097,0.118176901,0,1.4,2976,0.01125672,0.079267444,0,1,2976,,,,,0,,,,,0,,,,,0
BRHM,6/1/05,0,0,0,0,2880,0.001736111,0.016578876,0,0.2,2880,6.94E-05,0.002634774,0,0.1,2880,,,,,0,,,,,0,,,,,0
BRHM,7/1/05,3.36E-05,0.001833089,0,0.1,2976,0.002889785,0.021810088,0,0.2,2976,0.000100806,0.003173936,0,0.1,2976,,,,,0,,,,,0,,,,,0
BRHM,8/1/05,2.828057796,9.098389684,0,69.7,2976,1.186155914,3.489875374,0,29.6,2976,0.518313172,1.640523787,0,15.6,2976,,,,,0,,,,,0,,,,,0
BRHM,9/1/05,67.22930556,117.2938006,0,567.2,2880,28.830625,56.28984399,0,287.1,2880,7.925138889,14.52237401,0,65.5,2880,,,,,0,,,,,0,,,,,0
BRHM,10/1/05,303.1058804,303.2698973,0,1120.5,2976,148.6568212,148.4904698,0,538.2,2976,37.72597446,39.86653609,0,218.9,2976,,,,,0,,,,,0,,,,,0
BRHM,11/1/05,576.6110417,391.3152622,22.3,1692.6,2880,277.3610417,189.2503347,8.8,832,2880,60.19618056,41.08696179,1.6,185.4,2880,,,,,0,,,,,0,,,,,0
BRHM,12/1/05,662.9790659,409.890233,69.9,1723.6,2976,310.2870632,197.6348062,23.1,822,2976,65.60907258,41.64621437,4.3,180.7,2976,,,,,0,,,,,0,,,,,0
BRHM,1/1/06,669.8046448,422.6838588,85,1643.8,1098,316.6788707,204.1531901,22.4,800,1098,67.65300546,42.89645602,4.2,165.8,1098,,,,,0,,,,,0,,,,,0
BRHM,5/1/06,0,0,0,0,286,0,0,0,0,286,0,0,0,0,286,,,,,0,,,,,0,,,,,0
BRHM,6/1/06,3.52E-05,0.001877458,0,0.1,2837,0.001057455,0.011527052,0,0.2,2837,0,0,0,0,2837,,,,,0,,,,,0,,,,,0
BRHM,7/1/06,0,0,0,0,2976,0.004200269,0.032267249,0,0.6,2976,0.000504032,0.008386543,0,0.3,2976,,,,,0,,,,,0,,,,,0
BRHM,8/1/06,2.567977151,8.014090914,0,56.3,2976,1.23077957,3.67320713,0,24.8,2976,0.808971774,2.830890257,0,26.1,2976,,,,,0,,,,,0,,,,,0
BRHM,9/1/06,56.13135417,92.77128022,0,567.9,2880,23.93465278,42.50217779,0,282.6,2880,15.20142361,31.21227785,0,223.5,2880,,,,,0,,,,,0,,,,,0
BRHM,10/1/06,294.2704301,293.3842322,0,1124.9,2976,139.6802083,140.8566347,0,531.7,2976,82.53975134,83.25667391,0,321.6,2976,,,,,0,,,,,0,,,,,0
BRHM,11/1/06,581.4448264,387.946439,22,1433.9,2880,272.1792014,184.1542023,6.1,672.7,2880,100.6304514,77.57127776,2.2,373.9,2880,,,,,0,,,,,0,,,,,0
BRHM,12/1/06,711.1523522,426.1080311,98.5,1694.1,2976,334.8677875,205.2173237,23.3,824,2974,72.01680672,44.05384826,4.6,180.6,2975,,,,,0,,,,,0,,,,,0
BRHM,1/1/07,660.9763819,414.5490598,58.6,1683.7,1791,311.8029592,199.1264799,21.9,839,1791,64.30854271,41.35117367,4.2,169.9,1791,,,,,0,,,,,0,,,,,0
BRHM,9/1/07,76.64769311,111.6701473,0,517.1,1929,33.78055988,53.96782266,0,256.6,1929,10.34883359,15.7314397,0,76.7,1929,,,,,0,,,,,0,,,,,0
BRHM,10/1/07,270.0278562,276.9399779,0,1065.8,2976,130.8858871,134.7503573,0,499,2976,65.52170699,94.73226406,0,403.5,2976,,,,,0,,,,,0,,,,,0
BRHM,11/1/07,572.3730903,391.5698891,33.3,1537.4,2880,267.6710764,185.5944463,9.4,737,2880,111.4215625,85.91049473,5.8,430.2,2880,,,,,0,,,,,0,,,,,0
BRHM,12/1/07,689.5502688,415.9315356,44.4,1701.5,2976,325.9337702,199.0680157,18.2,825,2976,72.79808468,45.72359764,3.5,217.3,2976,,,,,0,,,,,0,,,,,0
BRHM,1/1/08,604.1155399,387.7150809,66.7,1637.9,2973,301.0879919,201.8409237,18.8,794,2973,70.33409549,50.63529413,3.1,294.9,2974,,,,,0,,,,,0,,,,,0
BRHM,2/1/08,349.9390086,310.2149721,0,1323.1,2784,183.890625,167.941701,0.1,713,2784,38.83599138,36.47129229,0,212.8,2784,,,,,0,,,,,0,,,,,0
BRHM,3/1/08,109.4643817,152.394328,0,714.3,2976,57.68047715,85.53812225,0,415.6,2976,20.92177419,33.9342774,0,199.9,2976,,,,,0,,,,,0,,,,,0
BRHM,4/1/08,10.371875,23.03363973,0,174.5,2880,4.4221875,10.33278625,0,109.3,2880,1.155243056,2.628084673,0,28.4,2880,,,,,0,,,,,0,,,,,0
BRHM,5/1/08,0.036995968,0.233610136,0,3.1,2976,0.027083333,0.141679106,0,1.7,2976,0.003931452,0.031882147,0,0.4,2976,,,,,0,,,,,0,,,,,0
BRHM,6/1/08,0.001041667,0.018793729,0,0.6,2880,0.001944444,0.015694096,0,0.2,2880,0,0,0,0,2880,,,,,0,,,,,0,,,,,0
BRHM,7/1/08,0.001344086,0.027406824,0,0.7,2976,0.004502688,0.025001943,0,0.3,2976,6.72E-05,0.002591944,0,0.1,2976,,,,,0,,,,,0,,,,,0
BRHM,8/1/08,3.092607527,9.543255921,0,65,2976,1.501444892,4.327999277,0,39.1,2976,0.404637097,1.166071622,0,9.5,2976,,,,,0,,,,,0,,,,,0
BRHM,9/1/08,62.05402778,102.9519721,0,611.9,2880,30.78798611,56.46656575,0,353.5,2880,6.432465278,11.46970933,0,67.9,2880,,,,,0,,,,,0,,,,,0
BRHM,10/1/08,272.2062164,274.8939527,0,1175.7,2976,145.03125,150.2109065,0,628.4,2976,36.4953629,38.4824975,0,222.2,2976,,,,,0,,,,,0,,,,,0
BRHM,11/1/08,579.6769444,386.2150317,14.4,1564.8,2880,302.52625,206.5433051,4.4,830,2880,58.2671875,39.5961347,1,158.4,2880,,,,,0,,,,,0,,,,,0
BRHM,12/1/08,737.1204637,425.4276094,65.2,1747.6,2976,378.3393145,224.5701958,17.4,932,2976,73.19828629,42.5313111,3,175.2,2976,,,,,0,,,,,0,,,,,0
BRHM,1/1/09,586.318246,389.478083,29.7,1924.5,2976,296.1311828,205.4699293,12.8,1019,2976,57.40430108,39.04172947,2.5,194.2,2976,,,,,0,,,,,0,,,,,0
BRHM,2/1/09,355.0589286,312.6902587,0.8,1284.2,2688,185.8272321,168.7023789,0.2,701,2688,63.03229167,74.7441445,0,367.5,2688,,,,,0,,,,,0,,,,,0
BRHM,3/1/09,121.5746304,170.7417259,0,770.5,2976,66.69509409,100.6759098,0,443.6,2976,17.38104839,25.82284254,0,113.7,2976,,,,,0,,,,,0,,,,,0
BRHM,4/1/09,9.820173611,23.02667147,0,170,2880,4.273888889,10.68135135,0,97.7,2880,1.732951389,4.113431726,0,45.9,2880,,,,,0,,,,,0,,,,,0
BRHM,5/1/09,0.040893817,0.256880591,0,3.2,2976,0.022076613,0.139650905,0,1.8,2976,0.013508065,0.103057422,0,1.4,2976,,,,,0,,,,,0,,,,,0
BRHM,6/1/09,0.003194444,0.034919702,0,0.7,2880,0.003958333,0.023388492,0,0.2,2880,0,0,0,0,2880,,,,,0,,,,,0,,,,,0
BRHM,7/1/09,0.005409946,0.05458137,0,0.8,2976,0.005409946,0.028420018,0,0.3,2976,6.72E-05,0.002591944,0,0.1,2976,,,,,0,,,,,0,,,,,0
BRHM,8/1/09,3.082157258,9.384485365,0,62.9,2976,1.416733871,3.91787057,0,35.7,2976,0.414650538,1.128288841,0,9.6,2976,,,,,0,,,,,0,,,,,0
BRHM,9/1/09,65.08135417,110.3264835,0,628.2,2880,32.47166667,62.57308177,0,367.9,2880,8.258229167,15.41805761,0,80.4,2880,,,,,0,,,,,0,,,,,0
BRHM,10/1/09,281.1480847,281.2239329,0,1080.2,2976,152.9082325,155.2412852,0,594.8,2976,43.16696909,42.72589352,0,170.2,2976,,,,,0,,,,,0,,,,,0
BRHM,11/1/09,559.3263889,392.7535201,20,1798.3,2880,281.5404514,203.8402188,7.3,934,2880,90.16815972,77.16422699,1.8,682.3,2880,,,,,0,,,,,0,,,,,0
BRHM,12/1/09,686.7842636,425.4354541,78.4,1828.7,2974,339.0770343,216.3849184,25.7,949,2974,67.94764627,43.26165636,4.6,190.5,2974,,,,,0,,,,,0,,,,,0
BRHM,1/1/10,584.799328,393.7732757,36.9,1626.3,2976,283.4788978,197.5596693,12.2,831,2976,56.25561156,39.29095821,2,158.7,2976,,,,,0,,,,,0,,,,,0
BRHM,2/1/10,346.5254092,315.5732182,0,1144.7,2688,170.040997,158.8280975,0.2,563.1,2688,62.94906994,67.85597205,0.2,355.4,2688,,,,,0,,,,,0,,,,,0
BRHM,3/1/10,118.7901546,166.4892207,0,817.6,2976,58.90376344,87.98122557,0,429.4,2976,26.44485887,37.74932258,0,221.2,2976,,,,,0,,,,,0,,,,,0
BRHM,4/1/10,11.05670139,24.61957099,0,198.1,2880,4.690763889,10.90098533,0,106.6,2880,2.062604167,5.071353407,0,54.2,2880,,,,,0,,,,,0,,,,,0
BRHM,5/1/10,0.027016129,0.22684382,0,3.4,2976,0.029334677,0.153468671,0,2,2976,0.013104839,0.078148558,0,1,2976,,,,,0,,,,,0,,,,,0
BRHM,6/1/10,3.47E-05,0.00186339,0,0.1,2880,0.0021875,0.017245331,0,0.2,2880,0.000486111,0.006956408,0,0.1,2880,,,,,0,,,,,0,,,,,0
BRHM,7/1/10,0,0,0,0,2976,0.003561828,0.022321144,0,0.2,2976,0.000168011,0.004847801,0,0.2,2976,,,,,0,,,,,0,,,,,0